Regional Weather Roundup
Issued by NWS Northern Indiana

Home | Current Version | Previous Version | Graphics & Text | Print | Product List | Glossary On
Versions: 1 2 3 4 5 6 7 8 9 10 11 12 13 14 15 16 17 18 19 20 21 22 23 24 25 26 27 28 29 30 31 32 33 34 35 36 37 38 39 40 41 42 43 44 45 46 47 48 49 50
000
ASUS43 KIWX 201100
RWRIWX

KIWX WEATHER ROUNDUP
NATIONAL WEATHER SERVICE NORTHERN INDIANA
600 AM EST SAT DEC 20 2014

NOTE: "FAIR" INDICATES FEW OR NO CLOUDS BELOW 12,000 FEET WITH NO
SIGNIFICANT WEATHER AND/OR OBSTRUCTIONS TO VISIBILITY.

* THESE STATIONS ARE NOT UNDER NWS QUALITY CONTROL. THEY ALSO MAY NOT
  REPORT WEATHER SUCH AS PRECIPITATION OR FOG.

INZ001>027-201200-
NORTHERN INDIANA

CITY           SKY/WX    TMP DP  RH WIND       PRES   REMARKS
GARY*          CLOUDY    32  23  69 CALM      30.29S
SOUTH BEND     CLOUDY    31  23  72 CALM      30.27S
GOSHEN         MOCLDY    25  22  88 CALM      30.26S FOG
ANGOLA*        MOCLDY    21  21 100 CALM      30.25S
FORT WAYNE     CLOUDY    26  23  88 CALM      30.27S

$$
INZ028>050-201200-
CENTRAL INDIANA

CITY           SKY/WX    TMP DP  RH WIND       PRES   REMARKS
LAFAYETTE      CLOUDY    28  27  96 CALM      30.28R FOG
KOKOMO*        CLOUDY    28  27  93 CALM      30.26F
MUNCIE*        CLOUDY    28  26  92 CALM      30.26R FOG
INDIANAPOLIS   CLOUDY    28  23  81 CALM      30.26R

$$
MIZ043>046-050>051-056>058-064>065-071>073-077>080-201200-
SOUTHWEST LOWER MICHIGAN

CITY           SKY/WX    TMP DP  RH WIND       PRES   REMARKS
BATTLE CREEK   CLOUDY    25  21  85 CALM      30.27S
BENTON HARBOR  CLOUDY    27  24  89 CALM      30.27S
COLDWATER*     CLOUDY    26  24  92 MISG      30.26F FOG
HILLSDALE*     CLOUDY    27  23  83 CALM      30.25S
HOLLAND        PTCLDY    21  16  81 CALM      30.28S
GRAND RAPIDS   CLEAR     18  14  84 CALM      30.28S
KALAMAZOO      CLEAR     19  15  84 E3        30.27S FOG
STURGIS*       CLEAR     19  19 100 CALM      30.26S FOG
THREE RIVERS*  FAIR      19  17  90 CALM      30.27F FOG

$$
OHZ001>008-015>018-024>025-201200-
NORTHWEST OHIO

CITY           SKY/WX    TMP DP  RH WIND       PRES   REMARKS
DEFIANCE       CLOUDY    28  24  85 CALM      30.28S
FINDLAY        CLOUDY    30  23  75 SE3       30.26F
TOLEDO EXPRESS CLOUDY    29  21  72 CALM      30.28S
TOLEDO METCALF CLOUDY    30  22  72 CALM      30.30S
LIMA           CLOUDY    31  24  75 CALM      30.25F

$$
AND FOR LAKE MICHIGAN COASTAL AND OPEN LAKE BUOY OBSERVATIONS

STATION/POSITION TEMP    WIND        PRES    VSBY  WAVE
                 AIR SEA DIR/SP/G                  HT/PER
                 (F)     (DEG/KT/KT) (MB)    (MI)  (FT/S)
CALUMET HARBOR    31     200/  3/  4 1023.9F
SAINT JOSEPH      31      CALM  /  2 1025.4F

$$
&&



USA.gov is the U.S. government's official web portal to all federal, state and local government web resources and services.